Sisseton, SD

4:10 AM CDT on August 23, 2017 (GMT -0500)
Sisseton

Weather History for K8D3 - October, 2014

Change the Weather History Date:

Saturday, October 11, 2014

  Actual Average Record
Temperature  
Mean Temperature 45 °F 49 °F  
Max Temperature 65 °F 60 °F 95 °F (2015)
Min Temperature 25 °F 37 °F 15 °F (1935)
Degree Days  
Heating Degree Days 20 17  
Month to date heating degree days 189 160  
Since 1 July heating degree days 392 405  
Cooling Degree Days 0 0  
Month to date cooling degree days 0 0  
Year to date cooling degree days 442 523  
Moisture  
Dew Point 32 °F    
Average Humidity 62    
Maximum Humidity 92    
Minimum Humidity 31    
Precipitation  
Precipitation 0.00 in 0.08 in 0.76 in (1947)
Month to date precipitation 0.00 0.96  
Year to date precipitation 21.80 20.24  
Snow  
Snow 0.00 in - - ()
Month to date snowfall 0.0  
Since 1 July snowfall 0.0  
Snow Depth 0.00 in    
Sea Level Pressure  
Sea Level Pressure 30.05 in    
Wind  
Wind Speed 12 mph (South)    
Max Wind Speed 24 mph    
Max Gust Speed 32 mph    
T = Trace of Precipitation, MM = Missing Value Source: NWS Daily Summary

Daily Weather History Graph

Daily Weather History Graph

Search for Another Location

Airport or City:

Trip Planner

Search our weather history database for the weather conditions in past years. The results will help you decide how hot, cold, wet, or windy it might be!

Date:

Astronomy

Oct. 11, 2014 Rise Set
Actual Time 7:39 AM CDT 6:49 PM CDT
Civil Twilight 7:09 AM CDT 7:19 PM CDT
Nautical Twilight 6:34 AM CDT 7:53 PM CDT
Astronomical Twilight 6:00 AM CDT 8:27 PM CDT
Moon 9:08 PM CDT (10/11) 11:13 AM CDT (10/11)
Length of Visible Light 12h 09m
Length of Day
11h 10m
Waning Gibbous, 87% of the Moon is Illuminated
Oct 11
Waning Gibbous
Oct 15
Last Quarter
Oct 23
New
Oct 30
First Quarter
Nov 6
Full

Hourly Weather History & Observations

Time (CDT) Temp. Windchill Dew Point Humidity Pressure Visibility Wind Dir Wind Speed Gust Speed Precip Events Conditions
12:56 AM 30.9 °F 26.2 °F 28.0 °F 89% 30.22 in - South 4.6 mph - N/A   Unknown
1:56 AM 28.9 °F - 26.1 °F 89% 30.22 in - Calm Calm - N/A   Unknown
2:56 AM 30.0 °F 26.5 °F 27.0 °F 88% 30.21 in - South 3.5 mph - N/A   Unknown
3:56 AM 28.9 °F 22.8 °F 26.1 °F 89% 30.19 in - SE 5.8 mph - N/A   Unknown
4:56 AM 26.1 °F - 24.1 °F 92% 30.18 in - Calm Calm - N/A   Unknown
5:56 AM 27.0 °F 23.0 °F 25.0 °F 92% 30.18 in - SSE 3.5 mph - N/A   Unknown
6:56 AM 28.0 °F 20.8 °F 26.1 °F 92% 30.20 in - SE 6.9 mph - N/A   Unknown
7:56 AM 28.9 °F 21.9 °F 26.1 °F 89% 30.19 in - SSE 6.9 mph - N/A   Unknown
8:56 AM 37.0 °F 32.4 °F 30.9 °F 79% 30.18 in - SE 5.8 mph - N/A   Unknown
9:56 AM 48.0 °F - 33.1 °F 56% 30.16 in - South 10.4 mph - N/A   Unknown
10:56 AM 55.9 °F - 30.9 °F 39% 30.13 in - SSW 17.3 mph 23.0 mph N/A   Unknown
11:56 AM 57.9 °F - 30.0 °F 35% 30.11 in - South 19.6 mph 29.9 mph N/A   Unknown
12:56 PM 61.0 °F - 30.0 °F 31% 30.07 in - South 20.7 mph 29.9 mph N/A   Unknown
1:56 PM 62.1 °F - 33.1 °F 34% 30.03 in - South 23.0 mph 28.8 mph N/A   Unknown
2:56 PM 64.0 °F - 34.0 °F 33% 29.99 in - South 18.4 mph 28.8 mph N/A   Unknown
3:56 PM 64.9 °F - 35.1 °F 33% 29.95 in - South 18.4 mph 26.5 mph N/A   Unknown
4:56 PM 64.0 °F - 35.1 °F 34% 29.93 in - South 20.7 mph 26.5 mph N/A   Unknown
5:56 PM 61.0 °F - 35.1 °F 38% 29.90 in - South 19.6 mph 28.8 mph N/A   Unknown
6:56 PM 57.0 °F - 36.0 °F 45% 29.89 in - South 16.1 mph - N/A   Unknown
7:56 PM 53.1 °F - 37.0 °F 55% 29.88 in - South 11.5 mph - N/A   Unknown
8:56 PM 50.0 °F - 37.0 °F 61% 29.86 in - South 15.0 mph - N/A   Unknown
9:56 PM 50.0 °F - 37.0 °F 61% 29.83 in - South 15.0 mph 24.2 mph N/A   Unknown
10:56 PM 48.0 °F - 37.0 °F 66% 29.81 in - South 11.5 mph - N/A   Unknown
11:56 PM 48.9 °F - 37.0 °F 64% 29.78 in - South 11.5 mph - N/A   Unknown